"Period start","avg(HW err(1)/warn(2) (#))","avg(Visibility (m))","avg(Weather code (#))","avg(Precip intensity (mm/h))","min(HW err(1)/warn(2) (#))","max(HW err(1)/warn(2) (#))","std(HW err(1)/warn(2) (#))","med(HW err(1)/warn(2) (#))","min(Visibility (m))","max(Visibility (m))","std(Visibility (m))","med(Visibility (m))","min(Weather code (#))","max(Weather code (#))","std(Weather code (#))","med(Weather code (#))","min(Precip intensity (mm/h))","max(Precip intensity (mm/h))","std(Precip intensity (mm/h))","med(Precip intensity (mm/h))"
2016-10-09 00:00:00,2,6191,73,0.10,2,2,0,2,2826,11916,2911,5490,71,77,3,71,0.00,0.25,0.09,0.10
2016-10-09 00:10:00,2,24296,75,0.00,2,2,0,2,14914,36632,6522,23160,71,77,3,77,0.00,0.00,0.00,0.00
2016-10-09 00:20:00,2,47041,15,0.00,2,2,0,2,32696,50000,5377,49916,0,77,30,0,0.00,0.00,0.00,0.00
2016-10-09 00:30:00,2,34442,0,0.00,2,2,0,2,16688,45280,9484,39219,0,0,0,0,0.00,0.00,0.00,0.00
2016-10-09 00:40:00,2,6420,22,0.07,2,2,0,2,4385,11484,2257,5454,0,54,22,20,0.00,0.20,0.08,0.05
2016-10-09 00:50:00,2,3228,54,0.30,2,2,0,2,2298,5175,1064,2739,54,54,0,54,0.05,0.70,0.19,0.25
2016-10-09 01:00:00,2,6456,26,0.04,2,2,0,2,4412,9453,1759,5433,10,41,16,26,0.00,0.15,0.05,0.03
2016-10-09 01:10:00,2,5498,53,0.17,2,2,0,2,4399,7362,966,5288,41,54,4,54,0.00,0.35,0.11,0.17
2016-10-09 01:20:00,2,10580,25,0.05,2,2,0,2,6372,16623,2990,11109,10,54,19,10,0.00,0.20,0.07,0.00
2016-10-09 01:30:00,2,7458,53,0.32,2,2,0,2,4106,10735,2151,7600,41,54,4,54,0.05,0.90,0.24,0.25
2016-10-09 01:40:00,2,4246,54,1.02,2,2,0,2,2154,6487,1236,3962,54,54,0,54,0.25,2.25,0.70,0.95
2016-10-09 01:50:00,2,2722,58,2.10,2,2,0,2,956,8065,2164,1906,41,71,11,54,0.15,4.75,1.31,2.00
2016-10-09 02:00:00,2,774,71,4.20,2,2,0,2,539,1073,164,756,71,72,0,71,2.40,5.40,0.90,4.40
2016-10-09 02:10:00,2,1027,72,2.25,2,2,0,2,648,1757,386,901,71,72,0,72,0.65,4.25,1.22,2.00
2016-10-09 02:20:00,2,1131,71,2.57,2,2,0,2,648,1853,407,1038,71,71,0,71,0.85,4.30,1.16,2.75
2016-10-09 02:30:00,2,758,72,6.43,2,2,0,2,543,1157,203,688,71,72,0,72,2.40,14.70,4.38,3.92
2016-10-09 02:40:00,2,2353,72,4.69,2,2,0,2,455,5567,1918,1398,71,72,0,72,0.05,11.00,4.20,3.77
2016-10-09 02:50:00,2,4670,62,0.54,2,2,0,2,2739,6105,1177,4686,10,71,19,71,0.00,1.25,0.39,0.53
2016-10-09 03:00:00,2,2388,52,1.08,2,2,0,2,1055,3735,1005,2621,41,77,16,41,0.45,1.80,0.42,1.02
2016-10-09 03:10:00,2,2362,72,0.83,2,2,0,2,1243,3910,758,2204,71,77,2,71,0.35,2.00,0.52,0.72
2016-10-09 03:20:00,2,3234,69,0.34,2,2,0,2,2785,3806,336,3174,41,77,14,77,0.15,0.55,0.11,0.33
2016-10-09 03:30:00,2,2820,59,0.47,2,2,0,2,2326,3440,284,2848,41,77,18,59,0.20,0.65,0.14,0.47
2016-10-09 03:40:00,2,2659,70,0.60,2,2,0,2,1883,3464,516,2695,41,77,14,77,0.15,1.00,0.21,0.62
2016-10-09 03:50:00,2,2213,59,0.59,2,2,0,2,1701,2699,343,2212,41,71,15,71,0.30,0.85,0.16,0.60
2016-10-09 04:00:00,2,1885,74,0.55,2,2,0,2,1673,2183,195,1817,71,77,3,74,0.25,0.90,0.22,0.50
2016-10-09 04:10:00,2,2467,77,0.64,2,2,0,2,1576,3677,745,2150,77,77,0,77,0.20,1.05,0.37,0.73
2016-10-09 04:20:00,2,2814,48,0.35,2,2,0,2,2284,3327,268,2792,41,77,14,41,0.20,0.50,0.08,0.38
2016-10-09 04:30:00,2,2157,72,0.55,2,2,0,2,1626,2924,431,2019,41,77,11,77,0.20,0.85,0.25,0.52
2016-10-09 04:40:00,2,2657,71,0.29,2,2,0,2,2136,3397,344,2539,41,77,10,74,0.15,0.50,0.12,0.28
2016-10-09 04:50:00,2,3698,41,0.30,2,2,0,2,3205,4963,555,3505,41,41,0,41,0.10,0.45,0.09,0.33
2016-10-09 05:00:00,2,3424,41,0.31,2,2,0,2,2684,3912,355,3478,41,41,0,41,0.15,0.50,0.10,0.30
2016-10-09 05:10:00,2,2010,66,0.54,2,2,0,2,1681,2427,219,2048,41,77,16,77,0.35,0.70,0.10,0.55
2016-10-09 05:20:00,2,2756,45,0.67,2,2,0,2,1782,3393,463,2874,41,77,11,41,0.25,1.25,0.28,0.68
2016-10-09 05:30:00,2,3104,41,1.07,2,2,0,2,2353,4202,571,3048,41,41,0,41,0.60,1.70,0.31,1.00
2016-10-09 05:40:00,2,3032,41,0.76,2,2,0,2,2734,3203,168,3094,41,41,0,41,0.45,1.10,0.16,0.75
2016-10-09 05:50:00,2,2239,67,0.73,2,2,0,2,1666,2874,371,2316,41,77,13,71,0.30,1.45,0.31,0.70
2016-10-09 06:00:00,2,3289,75,0.47,2,2,0,2,2552,4341,460,3280,71,77,3,77,0.25,0.70,0.16,0.50
2016-10-09 06:10:00,2,3848,73,0.35,2,2,0,2,3015,4912,551,3708,71,77,3,71,0.05,0.65,0.17,0.33
2016-10-09 06:20:00,2,4763,73,0.28,2,2,0,2,3824,5649,525,4702,71,77,3,71,0.20,0.35,0.05,0.28
2016-10-09 06:30:00,2,4715,64,0.31,2,2,0,2,2900,6043,1018,5154,41,77,15,71,0.15,0.70,0.15,0.30
2016-10-09 06:40:00,2,3155,71,0.52,2,2,0,2,2509,4539,616,3112,71,71,0,71,0.30,1.00,0.21,0.45
2016-10-09 06:50:00,2,3305,71,0.50,2,2,0,2,2263,4347,673,3358,71,71,0,71,0.15,1.00,0.26,0.45
2016-10-09 07:00:00,2,4232,71,0.45,2,2,0,2,3391,5618,578,4212,71,71,0,71,0.20,0.60,0.11,0.45
2016-10-09 07:10:00,2,3579,71,0.62,2,2,0,2,2732,4658,758,3374,71,71,0,71,0.25,1.00,0.25,0.57
2016-10-09 07:20:00,2,2844,72,0.44,2,2,0,2,2236,4059,582,2613,71,77,2,71,0.20,0.80,0.17,0.38
2016-10-09 07:30:00,2,3216,77,0.61,2,2,0,2,2091,4446,707,3126,77,77,0,77,0.30,0.90,0.22,0.62
2016-10-09 07:40:00,2,2467,73,0.52,2,2,0,2,1693,3466,636,2254,71,77,3,71,0.20,0.90,0.23,0.47
2016-10-09 07:50:00,2,7137,60,0.14,2,2,0,2,4786,8708,1287,7172,41,77,17,66,0.05,0.35,0.10,0.10
2016-10-09 08:00:00,2,6835,54,0.20,2,2,0,2,4837,8412,1223,6910,54,54,0,54,0.05,0.40,0.11,0.15
2016-10-09 08:10:00,2,4960,59,0.30,2,2,0,2,2876,7820,1620,4921,54,77,9,54,0.10,0.55,0.12,0.30
2016-10-09 08:20:00,2,3388,73,0.69,2,2,0,2,1905,5503,1179,3110,71,77,3,71,0.10,2.10,0.64,0.47
2016-10-09 08:30:00,2,5463,32,0.20,2,2,0,2,3459,8673,1605,4980,10,71,20,41,0.00,0.60,0.22,0.10
2016-10-09 08:40:00,2,5117,41,0.49,2,2,0,2,3628,6996,1073,5069,41,41,0,41,0.10,0.80,0.21,0.55
2016-10-09 08:50:00,2,5685,41,0.36,2,2,0,2,3420,8601,1604,5759,41,41,0,41,0.05,0.55,0.15,0.35
2016-10-09 09:00:00,2,4754,73,0.35,2,2,0,2,3406,6831,904,4770,71,77,3,71,0.20,0.95,0.21,0.30
2016-10-09 09:10:00,2,4431,74,0.34,2,2,0,2,2592,8004,1638,3906,71,77,3,74,0.05,0.65,0.19,0.30
2016-10-09 09:20:00,2,5588,75,0.21,2,2,0,2,3444,7283,1312,5236,71,77,3,77,0.10,0.35,0.08,0.23
2016-10-09 09:30:00,2,4546,63,0.47,2,2,0,2,2289,6285,1288,4929,41,77,14,71,0.10,1.40,0.36,0.33
2016-10-09 09:40:00,2,4814,71,0.28,2,2,0,2,3219,6895,1276,4606,71,71,0,71,0.05,0.60,0.19,0.25
2016-10-09 09:50:00,2,11236,59,0.11,2,2,0,2,4438,16289,3692,11907,41,77,18,59,0.00,0.30,0.08,0.08
2016-10-09 10:00:00,2,6689,44,0.36,2,2,0,2,4994,10430,1528,6374,41,71,9,41,0.15,0.50,0.11,0.38
2016-10-09 10:10:00,2,6099,71,0.29,2,2,0,2,3960,7720,933,6200,41,77,10,74,0.05,0.55,0.16,0.25
2016-10-09 10:20:00,2,2948,70,0.47,2,2,0,2,2138,3623,447,2953,41,77,14,77,0.15,0.85,0.20,0.50
2016-10-09 10:30:00,2,4774,74,0.47,2,2,0,2,2835,6557,1006,4846,71,77,3,74,0.05,1.20,0.37,0.45
2016-10-09 10:40:00,2,2782,71,0.80,2,2,0,2,1724,3929,555,2804,71,71,0,71,0.20,1.85,0.45,0.65
2016-10-09 10:50:00,2,2842,71,0.69,2,2,0,2,1847,3830,653,2807,71,71,0,71,0.20,1.75,0.42,0.60
2016-10-09 11:00:00,2,3572,72,0.42,2,2,0,2,2819,5238,616,3520,71,77,2,71,0.15,0.60,0.14,0.40
2016-10-09 11:10:00,2,2966,75,0.63,2,2,0,2,1711,4624,1019,2790,71,77,3,77,0.20,1.40,0.42,0.50
2016-10-09 11:20:00,2,5821,74,0.24,2,2,0,2,3557,8375,1562,5328,71,77,3,74,0.05,0.65,0.18,0.17
2016-10-09 11:30:00,2,5864,64,0.22,2,2,0,2,4316,8536,1383,5520,41,77,15,71,0.00,0.50,0.15,0.20
2016-10-09 11:40:00,2,14893,52,0.04,2,2,0,2,8966,21982,3694,14778,41,77,16,41,0.00,0.05,0.02,0.05
2016-10-09 11:50:00,2,5321,62,0.73,2,2,0,2,2114,15720,5153,2845,41,71,12,71,0.00,2.65,0.76,0.52
2016-10-09 12:00:00,2,4682,72,0.32,2,2,0,2,2710,7324,1515,4260,71,77,2,71,0.15,0.70,0.18,0.23
2016-10-09 12:10:00,2,5096,73,0.36,2,2,0,2,3582,7291,1225,4896,71,77,3,71,0.15,0.65,0.14,0.35
2016-10-09 12:20:00,2,2982,72,1.34,2,2,0,2,1676,5869,1362,2328,71,77,2,71,0.20,3.55,0.87,1.18
2016-10-09 12:30:00,2,4113,71,0.61,2,2,0,2,1539,5762,1261,4322,71,71,0,71,0.00,2.25,0.83,0.08
2016-10-09 12:40:00,2,8554,41,0.03,2,2,0,2,3463,12039,2946,9273,10,71,27,41,0.00,0.15,0.06,0.00
2016-10-09 12:50:00,2,6814,19,0.19,2,2,0,2,2941,11329,2878,6685,10,41,14,10,0.00,0.85,0.31,0.00
2016-10-09 13:00:00,2,6599,53,0.14,2,2,0,2,5456,8110,765,6541,41,54,4,54,0.05,0.35,0.09,0.10
2016-10-09 13:10:00,2,4324,54,0.61,2,2,0,2,2914,5846,829,4243,54,54,0,54,0.25,1.10,0.26,0.62
2016-10-09 13:20:00,2,5603,54,0.36,2,2,0,2,3865,7436,1025,5294,54,54,0,54,0.10,0.80,0.26,0.28
2016-10-09 13:30:00,2,4887,54,0.57,2,2,0,2,2840,6352,1138,5164,54,54,0,54,0.10,2.00,0.57,0.33
2016-10-09 13:40:00,2,6363,54,0.21,2,2,0,2,4981,7760,845,6275,54,54,0,54,0.05,0.60,0.17,0.12
2016-10-09 13:50:00,2,7160,10,0.00,2,2,0,2,4404,9839,1570,7619,10,10,0,10,0.00,0.00,0.00,0.00
2016-10-09 14:00:00,2,6774,10,0.00,2,2,0,2,4054,8478,1206,6924,10,10,0,10,0.00,0.00,0.00,0.00
2016-10-09 14:10:00,2,9089,32,0.03,2,2,0,2,5346,11855,1799,9379,10,54,19,41,0.00,0.10,0.03,0.00
2016-10-09 14:20:00,2,12668,6,0.00,2,2,0,2,9476,15879,2053,12252,0,10,5,10,0.00,0.00,0.00,0.00
2016-10-09 14:30:00,2,13161,0,0.00,2,2,0,2,10312,15917,1486,12936,0,0,0,0,0.00,0.00,0.00,0.00
2016-10-09 14:40:00,2,19236,0,0.00,2,2,0,2,15837,25052,2546,18769,0,0,0,0,0.00,0.00,0.00,0.00
2016-10-09 14:50:00,2,18995,4,0.02,2,2,0,2,11228,29977,6889,17318,0,40,12,0,0.00,0.20,0.06,0.00
2016-10-09 15:00:00,2,17885,26,0.02,2,2,0,2,14259,23032,2963,18413,0,54,26,20,0.00,0.05,0.02,0.00
2016-10-09 15:10:00,2,12273,43,0.05,2,2,0,2,9395,16056,1983,11640,0,54,16,48,0.00,0.15,0.05,0.05
2016-10-09 15:20:00,2,13593,24,0.03,2,2,0,2,8935,18452,3267,14369,0,54,25,20,0.00,0.10,0.04,0.00
2016-10-09 15:30:00,2,16128,26,0.02,2,2,0,2,10684,23096,4105,15212,0,54,26,20,0.00,0.10,0.03,0.00
2016-10-09 15:40:00,2,21070,0,0.00,2,2,0,2,14637,26373,3708,21114,0,0,0,0,0.00,0.00,0.00,0.00
2016-10-09 15:50:00,2,24408,22,0.02,2,2,0,2,13408,40968,9585,20894,0,54,22,20,0.00,0.10,0.04,0.00
2016-10-09 16:00:00,2,49050,0,0.00,2,2,0,2,45843,50000,1501,50000,0,0,0,0,0.00,0.00,0.00,0.00
2016-10-09 16:10:00,2,49094,0,0.00,2,2,0,2,46075,50000,1510,50000,0,0,0,0,0.00,0.00,0.00,0.00
2016-10-09 16:20:00,2,21385,0,0.00,2,2,0,2,13948,35557,7131,19336,0,0,0,0,0.00,0.00,0.00,0.00
2016-10-09 16:30:00,2,29494,0,0.00,2,2,0,2,18940,34276,4216,29945,0,0,0,0,0.00,0.00,0.00,0.00
2016-10-09 16:40:00,2,32834,0,0.00,2,2,0,2,16885,48407,10277,32846,0,0,0,0,0.00,0.00,0.00,0.00
2016-10-09 16:50:00,2,49555,0,0.00,2,2,0,2,45553,50000,1334,50000,0,0,0,0,0.00,0.00,0.00,0.00
2016-10-09 17:00:00,2,50000,0,0.00,2,2,0,2,50000,50000,0,50000,0,0,0,0,0.00,0.00,0.00,0.00
2016-10-09 17:10:00,2,50000,0,0.00,2,2,0,2,50000,50000,0,50000,0,0,0,0,0.00,0.00,0.00,0.00
2016-10-09 17:20:00,2,50000,0,0.00,2,2,0,2,50000,50000,0,50000,0,0,0,0,0.00,0.00,0.00,0.00
2016-10-09 17:30:00,2,50000,0,0.00,2,2,0,2,50000,50000,0,50000,0,0,0,0,0.00,0.00,0.00,0.00
2016-10-09 17:40:00,2,50000,0,0.00,2,2,0,2,50000,50000,0,50000,0,0,0,0,0.00,0.00,0.00,0.00
2016-10-09 17:50:00,2,50000,0,0.00,2,2,0,2,50000,50000,0,50000,0,0,0,0,0.00,0.00,0.00,0.00
2016-10-09 18:00:00,2,50000,0,0.00,2,2,0,2,50000,50000,0,50000,0,0,0,0,0.00,0.00,0.00,0.00
2016-10-09 18:10:00,2,50000,0,0.00,2,2,0,2,50000,50000,0,50000,0,0,0,0,0.00,0.00,0.00,0.00
2016-10-09 18:20:00,2,50000,0,0.00,2,2,0,2,50000,50000,0,50000,0,0,0,0,0.00,0.00,0.00,0.00
2016-10-09 18:30:00,2,50000,0,0.00,2,2,0,2,50000,50000,0,50000,0,0,0,0,0.00,0.00,0.00,0.00
2016-10-09 18:40:00,2,49991,0,0.00,2,2,0,2,49911,50000,27,50000,0,0,0,0,0.00,0.00,0.00,0.00
2016-10-09 18:50:00,2,50000,0,0.00,2,2,0,2,50000,50000,0,50000,0,0,0,0,0.00,0.00,0.00,0.00
2016-10-09 19:00:00,2,50000,0,0.00,2,2,0,2,50000,50000,0,50000,0,0,0,0,0.00,0.00,0.00,0.00
2016-10-09 19:10:00,2,50000,0,0.00,2,2,0,2,50000,50000,0,50000,0,0,0,0,0.00,0.00,0.00,0.00
2016-10-09 19:20:00,2,50000,0,0.00,2,2,0,2,50000,50000,0,50000,0,0,0,0,0.00,0.00,0.00,0.00
2016-10-09 19:30:00,2,50000,0,0.00,2,2,0,2,50000,50000,0,50000,0,0,0,0,0.00,0.00,0.00,0.00
2016-10-09 19:40:00,2,49973,0,0.00,2,2,0,2,49730,50000,81,50000,0,0,0,0,0.00,0.00,0.00,0.00
2016-10-09 19:50:00,2,50000,0,0.00,2,2,0,2,50000,50000,0,50000,0,0,0,0,0.00,0.00,0.00,0.00
2016-10-09 20:00:00,2,50000,0,0.00,2,2,0,2,50000,50000,0,50000,0,0,0,0,0.00,0.00,0.00,0.00
2016-10-09 20:10:00,2,50000,0,0.00,2,2,0,2,50000,50000,0,50000,0,0,0,0,0.00,0.00,0.00,0.00
2016-10-09 20:20:00,2,50000,0,0.00,2,2,0,2,50000,50000,0,50000,0,0,0,0,0.00,0.00,0.00,0.00
2016-10-09 20:30:00,2,50000,0,0.00,2,2,0,2,50000,50000,0,50000,0,0,0,0,0.00,0.00,0.00,0.00
2016-10-09 20:40:00,2,50000,0,0.00,2,2,0,2,50000,50000,0,50000,0,0,0,0,0.00,0.00,0.00,0.00
2016-10-09 20:50:00,2,50000,0,0.00,2,2,0,2,50000,50000,0,50000,0,0,0,0,0.00,0.00,0.00,0.00
2016-10-09 21:00:00,2,49880,0,0.00,2,2,0,2,48803,50000,359,50000,0,0,0,0,0.00,0.00,0.00,0.00
2016-10-09 21:10:00,2,49814,0,0.00,2,2,0,2,48138,50000,559,50000,0,0,0,0,0.00,0.00,0.00,0.00
2016-10-09 21:20:00,2,50000,0,0.00,2,2,0,2,50000,50000,0,50000,0,0,0,0,0.00,0.00,0.00,0.00
2016-10-09 21:30:00,2,50000,0,0.00,2,2,0,2,50000,50000,0,50000,0,0,0,0,0.00,0.00,0.00,0.00
2016-10-09 21:40:00,2,50000,0,0.00,2,2,0,2,50000,50000,0,50000,0,0,0,0,0.00,0.00,0.00,0.00
2016-10-09 21:50:00,2,50000,0,0.00,2,2,0,2,50000,50000,0,50000,0,0,0,0,0.00,0.00,0.00,0.00
2016-10-09 22:00:00,2,50000,0,0.00,2,2,0,2,50000,50000,0,50000,0,0,0,0,0.00,0.00,0.00,0.00
2016-10-09 22:10:00,2,50000,0,0.00,2,2,0,2,50000,50000,0,50000,0,0,0,0,0.00,0.00,0.00,0.00
2016-10-09 22:20:00,2,50000,0,0.00,2,2,0,2,50000,50000,0,50000,0,0,0,0,0.00,0.00,0.00,0.00
2016-10-09 22:30:00,2,50000,0,0.00,2,2,0,2,50000,50000,0,50000,0,0,0,0,0.00,0.00,0.00,0.00
2016-10-09 22:40:00,2,50000,0,0.00,2,2,0,2,50000,50000,0,50000,0,0,0,0,0.00,0.00,0.00,0.00
2016-10-09 22:50:00,2,50000,0,0.00,2,2,0,2,50000,50000,0,50000,0,0,0,0,0.00,0.00,0.00,0.00
2016-10-09 23:00:00,2,49518,0,0.00,2,2,0,2,46579,50000,1065,50000,0,0,0,0,0.00,0.00,0.00,0.00
2016-10-09 23:10:00,2,50000,0,0.00,2,2,0,2,50000,50000,0,50000,0,0,0,0,0.00,0.00,0.00,0.00
2016-10-09 23:20:00,2,49970,0,0.00,2,2,0,2,49695,50000,92,50000,0,0,0,0,0.00,0.00,0.00,0.00
2016-10-09 23:30:00,2,50000,0,0.00,2,2,0,2,50000,50000,0,50000,0,0,0,0,0.00,0.00,0.00,0.00
2016-10-09 23:40:00,2,49700,0,0.00,2,2,0,2,47654,50000,709,50000,0,0,0,0,0.00,0.00,0.00,0.00
2016-10-09 23:50:00,2,49394,0,0.00,2,2,0,2,44018,50000,1792,50000,0,0,0,0,0.00,0.00,0.00,0.00
